{"data":{"norad_id":55592,"epoch":"2026-05-25T02:36:09.805248Z","epoch_age_seconds":55752,"freshness":"FRESH","line1":"1 55592U 23020Z   26145.10844682 -.00000170  00000+0  33486-5 0  9991","line2":"2 55592  43.0025 293.3216 0000946 270.1794  89.8949 15.27575906180606","mean_motion":15.27575906,"eccentricity":9.46e-5,"inclination_deg":43.0025,"raan_deg":293.3216,"arg_perigee_deg":270.1794,"mean_anomaly_deg":89.8949,"bstar":3.3486e-6,"rev_number":18060,"period_min":94.267001354498,"perigee_km":482.41228561146,"apogee_km":483.71042434022,"semimajor_km":6861.1983549758,"source":"CELESTRAK","updated_at":"2026-05-25T13:38:17.839320Z"}}